GEFSNE_850_meantemp_000.txt.gz
Temperature
8 8 7 7 7 7 7 6 6 7 7 8 9 9 9 8 8 9 9 9 10 10 10 10 10 11 11 10 10 10 10 10 10 9 8 6 5 5
7 7 7 7 7 6 6 6 6 6 6 7 8 8 8 8 7 8 8 9 9 9 10 10 10 10 10 10 10 10 10 9 9 9 7 7 5 5
7 6 6 6 6 6 6 6 6 6 5 6 6 7 7 8 8 8 8 8 8 9 9 9 9 9 9 9 9 9 9 9 8 8 7 6 5 4
6 6 6 6 6 5 5 5 5 5 5 5 6 6 7 7 7 8 7 8 8 8 8 9 9 9 9 9 8 8 8 8 8 7 7 6 5 4
6 6 5 5 5 5 5 5 5 5 5 5 5 6 6 6 7 7 7 8 8 8 8 8 8 8 8 8 8 8 8 8 7 7 7 6 5 4
5 5 5 5 5 5 5 5 5 5 5 4 4 5 5 6 6 6 7 8 8 8 8 8 8 8 7 7 7 8 7 7 7 7 7 6 5 4
4 4 4 3 4 4 4 4 4 4 4 3 3 4 5 5 5 6 6 7 7 7 7 8 8 7 7 7 6 7 6 6 6 6 6 6 5 4
2 2 2 2 3 3 3 3 2 2 2 2 2 3 4 4 5 5 5 6 5 6 6 7 7 7 7 7 7 6 6 6 6 6 6 6 5 4
1 1 1 1 1 1 1 0 1 0 1 1 2 2 3 4 4 4 4 5 5 6 6 6 6 6 7 7 7 7 7 7 6 6 5 5 5 4
-1 -1 -1 -1 -1 -1 -2 -2 -1 -0 -0 0 1 2 2 3 3 4 4 4 4 5 5 5 5 6 7 7 7 7 7 7 6 6 5 4 4 3
-4 -3 -3 -3 -3 -4 -3 -3 -3 -2 -1 -0 1 1 2 2 3 3 3 4 4 4 4 4 4 5 5 4 5 5 5 5 5 4 4 4 3 2
-5 -5 -5 -5 -5 -5 -4 -4 -4 -3 -3 -2 -1 -0 1 1 2 2 3 3 4 4 4 4 4 4 3 4 4 4 4 4 4 3 3 3 2 1
-7 -7 -7 -6 -6 -6 -5 -5 -5 -4 -3 -3 -2 -1 -1 0 1 2 2 3 3 4 4 3 3 3 3 3 3 4 4 3 3 3 2 2 1 0
-8 -8 -8 -8 -7 -6 -5 -5 -5 -5 -4 -3 -2 -2 -1 -1 0 1 2 2 3 3 3 3 3 3 3 3 3 3 3 3 2 2 2 1 0 -1
-10 -9 -9 -8 -7 -6 -6 -5 -5 -5 -5 -5 -3 -2 -2 -1 -1 0 1 1 2 2 2 3 3 3 3 3 3 2 2 2 2 1 1 0 -0 -1
-10 -9 -9 -8 -8 -7 -6 -6 -6 -6 -6 -6 -6 -5 -4 -3 -2 -1 1 1 1 1 2 2 2 3 3 2 2 2 2 2 1 1 0 -0 -1 -2
-10 -9 -9 -9 -8 -8 -7 -7 -7 -6 -7 -7 -6 -6 -5 -4 -2 -2 0 0 1 1 1 2 2 2 2 2 2 1 1 1 1 0 -0 -1 -2 -2
-10 -10 -10 -10 -10 -10 -10 -9 -8 -8 -8 -8 -7 -6 -6 -5 -3 -2 -1 0 1 1 1 1 1 1 0 -0 0 0 0 0 -0 -1 -1 -2 -3 -3
-11 -11 -11 -12 -12 -12 -11 -11 -10 -9 -9 -9 -8 -7 -6 -5 -4 -2 -1 -1 -0 -0 0 1 1 0 -1 -2 -2 -2 -1 -1 -2 -3 -3 -3 -3 -3
-12 -13 -13 -13 -13 -12 -12 -12 -11 -10 -10 -10 -8 -7 -6 -5 -4 -3 -2 -1 -1 -1 -1 -1 -1 -1 -1 -2 -4 -4 -4 -3 -3 -3 -4 -4 -4 -5
-14 -14 -14 -13 -13 -13 -13 -12 -11 -11 -11 -10 -8 -7 -6 -5 -5 -4 -3 -2 -2 -2 -2 -3 -3 -3 -2 -3 -4 -6 -6 -5 -4 -4 -5 -6 -6 -7
-15 -15 -14 -14 -14 -14 -13 -12 -12 -11 -11 -11 -9 -8 -7 -6 -5 -5 -4 -5 -5 -4 -5 -5 -5 -5 -4 -4 -6 -7 -8 -8 -7 -7 -7 -7 -7 -7
-16 -15 -15 -15 -14 -14 -13 -13 -12 -12 -11 -11 -9 -8 -7 -7 -6 -6 -6 -6 -6 -6 -6 -7 -6 -6 -6 -5 -7 -8 -9 -9 -8 -8 -8 -8 -7 -7

GEFSNE_850_meantemp_006.txt.gz
Temperature
7 7 7 7 7 7 7 6 6 6 6 6 7 8 8 7 7 8 8 8 8 8 9 10 9 9 10 10 10 10 11 11 11 11 11 11 10 9
6 6 7 7 7 6 6 6 6 6 5 6 6 6 7 7 7 7 8 8 7 8 8 9 9 9 9 10 10 10 10 10 11 11 11 11 11 9
6 6 6 6 6 6 6 6 5 5 5 5 5 5 6 6 7 7 7 7 7 7 7 8 9 9 9 9 10 10 10 10 10 10 10 10 10 10
5 5 5 6 6 6 6 5 5 5 4 4 5 5 5 6 6 6 6 7 7 7 7 7 8 8 9 9 9 10 9 10 10 9 10 10 10 10
3 4 4 5 5 5 5 5 4 4 4 4 4 4 5 5 5 6 6 6 6 7 7 7 7 8 8 8 9 9 9 9 10 9 9 9 9 9
2 2 3 3 3 3 3 3 3 3 3 3 3 4 4 4 5 5 5 6 6 6 6 6 7 7 7 8 8 8 8 8 9 9 9 9 9 9
1 1 1 1 2 2 2 1 1 1 2 2 2 3 3 3 3 3 3 5 5 5 5 6 6 6 6 7 7 8 8 8 8 9 9 9 9 8
0 0 0 1 1 1 1 0 0 0 0 0 0 1 2 2 1 1 1 2 3 5 4 5 6 6 6 6 7 7 7 8 8 8 8 8 8 8
-2 -2 -1 -1 -1 -1 -2 -2 -1 -1 -1 -2 -2 -1 -1 0 -0 -0 0 1 2 3 3 3 4 5 6 6 6 7 7 7 7 7 8 8 8 8
-4 -4 -3 -3 -3 -4 -4 -4 -3 -3 -3 -3 -3 -3 -2 -1 -2 -1 -1 -0 1 2 2 2 3 4 5 6 6 6 6 6 7 7 7 7 7 7
-5 -5 -5 -5 -6 -6 -6 -6 -5 -4 -4 -4 -3 -3 -2 -2 -2 -2 -2 -1 -0 1 1 2 2 3 3 4 5 6 6 6 6 6 6 7 7 7
-6 -6 -6 -8 -8 -8 -8 -7 -7 -6 -6 -5 -4 -3 -3 -2 -1 -2 -3 -2 -2 -1 0 1 2 2 2 4 5 5 5 5 6 6 6 6 6 6
-7 -7 -7 -8 -8 -8 -8 -8 -8 -8 -7 -6 -5 -4 -3 -3 -2 -2 -3 -3 -3 -2 -1 -0 0 1 2 2 4 5 5 5 5 5 5 5 5 5
-8 -8 -8 -8 -7 -7 -7 -8 -8 -8 -7 -7 -6 -5 -5 -4 -3 -3 -3 -3 -3 -2 -2 -1 -1 -0 1 2 2 3 4 5 5 5 5 5 5 5
-9 -9 -9 -8 -8 -7 -7 -7 -7 -8 -8 -8 -8 -7 -6 -5 -5 -4 -3 -3 -3 -2 -2 -2 -1 -1 -0 1 1 2 3 4 4 4 4 4 4 4
-10 -9 -9 -9 -9 -9 -8 -8 -8 -9 -9 -9 -9 -8 -7 -7 -6 -5 -5 -4 -4 -3 -2 -2 -1 -1 -1 0 1 1 2 3 3 4 4 4 4 4
-11 -10 -10 -9 -9 -9 -9 -9 -9 -9 -10 -10 -10 -9 -8 -8 -7 -7 -7 -7 -7 -6 -4 -3 -2 -2 -1 -0 1 1 2 2 3 3 3 3 3 3
-11 -11 -11 -11 -11 -11 -11 -11 -10 -11 -11 -11 -11 -10 -10 -10 -9 -8 -8 -8 -8 -7 -6 -5 -4 -3 -2 -1 0 1 1 2 2 2 3 2 2 2
-12 -12 -13 -13 -13 -13 -12 -12 -12 -12 -12 -12 -12 -11 -11 -11 -11 -10 -9 -9 -8 -8 -7 -6 -5 -4 -3 -1 -0 1 1 2 1 1 1 2 2 1
-13 -13 -14 -14 -14 -14 -13 -13 -13 -13 -13 -12 -12 -12 -11 -11 -12 -11 -11 -10 -9 -8 -7 -6 -5 -4 -3 -2 -1 -1 -0 1 1 1 1 1 1 0
-14 -14 -14 -14 -14 -14 -14 -14 -14 -13 -13 -13 -12 -12 -11 -12 -12 -11 -10 -9 -9 -8 -7 -6 -4 -3 -2 -2 -1 -1 -1 -1 0 1 1 0 -1 -2
-15 -15 -15 -15 -15 -15 -15 -15 -14 -14 -13 -13 -12 -12 -12 -12 -12 -11 -10 -9 -9 -8 -7 -5 -4 -3 -2 -2 -1 -1 -2 -3 -2 -1 -0 -0 -1 -2
-16 -15 -15 -15 -15 -15 -15 -15 -14 -14 -13 -13 -12 -12 -12 -12 -11 -11 -10 -9 -9 -8 -7 -6 -4 -3 -3 -2 -3 -3 -4 -4 -4 -3 -3 -2 -1 -1

GEFSNE_850_meantemp_012.txt.gz
Temperature
7 7 7 7 7 7 6 6 7 7 8 8 7 7 6 6 6 7 6 7 8 8 8 8 9 8 8 9 9 9 10 10 11 11 11 11 12 12
6 6 6 6 6 6 6 6 6 6 7 7 7 6 6 6 6 6 6 7 7 7 8 8 8 8 8 8 8 8 9 10 10 11 11 11 11 11
5 5 5 5 5 5 6 6 6 6 6 6 6 6 5 5 5 5 5 6 6 6 7 7 8 8 8 8 8 8 8 9 9 10 10 11 11 11
3 3 4 4 4 4 5 5 5 5 5 6 6 5 4 4 5 5 5 5 5 6 6 7 7 7 7 8 8 8 8 8 9 9 10 10 10 10
1 2 2 3 3 3 4 4 4 4 4 4 4 4 4 4 4 4 4 4 5 5 6 6 6 7 7 7 7 7 8 8 8 8 9 10 10 10
1 1 1 1 1 2 2 2 2 3 3 3 3 3 3 3 2 3 3 3 4 4 5 5 6 6 6 6 6 7 7 7 7 8 9 9 10 10
-0 -0 0 0 0 1 1 1 1 2 2 2 2 2 2 1 1 2 2 2 3 3 3 4 4 4 5 5 6 6 7 7 7 7 8 9 9 10
-1 -1 -1 -1 -1 -0 -0 -0 0 0 1 1 1 0 0 0 0 0 -0 0 0 2 1 2 2 3 4 4 5 5 6 6 6 7 7 8 8 9
-3 -3 -3 -3 -2 -3 -2 -2 -1 -1 -0 -0 -1 -1 -2 -1 -1 -1 -2 -2 -1 -0 -1 0 1 1 2 3 4 5 5 6 6 6 6 7 8 8
-4 -4 -4 -5 -5 -5 -5 -4 -4 -4 -2 -2 -3 -3 -3 -3 -3 -3 -3 -3 -2 -1 -1 -1 -0 0 1 2 2 3 4 5 5 5 5 6 7 8
-6 -6 -5 -6 -7 -7 -6 -6 -6 -5 -5 -4 -3 -4 -3 -3 -3 -3 -4 -4 -3 -2 -2 -2 -1 -1 -0 1 1 2 3 4 4 5 5 5 6 7
-8 -8 -7 -8 -8 -8 -7 -7 -7 -7 -6 -5 -4 -4 -4 -4 -4 -4 -5 -5 -5 -4 -3 -3 -2 -2 -1 -0 1 2 2 3 3 4 4 5 5 6
-9 -9 -9 -9 -8 -8 -7 -8 -8 -7 -6 -5 -5 -4 -5 -5 -5 -6 -6 -5 -5 -5 -4 -4 -4 -4 -3 -2 -2 -1 0 1 2 3 4 4 5 5
-9 -9 -9 -9 -8 -8 -8 -8 -8 -7 -7 -6 -6 -6 -5 -5 -5 -5 -5 -5 -5 -5 -4 -4 -5 -4 -5 -4 -3 -2 -2 -0 1 2 3 4 4 5
-10 -10 -9 -9 -8 -8 -8 -8 -8 -9 -9 -8 -8 -8 -7 -6 -6 -6 -5 -5 -5 -4 -5 -5 -5 -5 -5 -5 -4 -3 -3 -2 -1 1 2 3 3 4
-11 -10 -9 -9 -9 -9 -9 -10 -10 -10 -10 -10 -9 -9 -9 -8 -8 -7 -7 -6 -5 -4 -4 -5 -6 -6 -6 -6 -5 -5 -4 -3 -2 -1 1 2 2 3
-11 -11 -11 -11 -11 -11 -11 -11 -11 -11 -11 -11 -11 -10 -10 -10 -9 -9 -9 -8 -8 -6 -4 -4 -6 -6 -6 -6 -6 -5 -4 -3 -2 -1 -1 0 1 2
-12 -12 -12 -12 -12 -12 -12 -12 -12 -12 -12 -12 -12 -12 -12 -11 -11 -10 -10 -10 -10 -9 -8 -6 -6 -7 -7 -6 -5 -5 -4 -4 -3 -2 -1 -1 0 1
-12 -13 -13 -13 -13 -13 -13 -13 -13 -13 -13 -13 -13 -13 -13 -12 -12 -12 -11 -11 -11 -11 -10 -9 -9 -9 -8 -7 -6 -5 -5 -4 -3 -3 -2 -1 -0 1
-14 -14 -14 -14 -14 -14 -14 -14 -14 -14 -14 -14 -14 -13 -13 -13 -13 -12 -12 -12 -12 -12 -11 -10 -9 -9 -9 -8 -7 -6 -5 -5 -4 -3 -2 -1 -1 0
-14 -14 -15 -15 -15 -15 -15 -15 -15 -15 -15 -14 -14 -14 -14 -13 -13 -12 -12 -12 -13 -12 -12 -11 -9 -9 -9 -9 -8 -7 -5 -5 -5 -4 -3 -2 -1 -1
-15 -15 -15 -15 -16 -16 -16 -16 -16 -15 -15 -15 -15 -14 -14 -13 -13 -13 -13 -13 -13 -12 -12 -11 -10 -10 -10 -9 -8 -8 -6 -5 -5 -4 -3 -2 -2 -1
-15 -15 -15 -16 -16 -16 -16 -16 -16 -16 -15 -15 -15 -14 -14 -13 -13 -13 -13 -13 -13 -12 -12 -11 -10 -10 -9 -9 -8 -7 -6 -5 -5 -4 -3 -2 -1 -1

GEFSNE_850_meantemp_018.txt.gz
Temperature
6 6 6 6 6 6 7 7 7 7 7 8 8 8 8 7 7 7 7 6 6 7 7 7 8 8 8 9 9 9 10 10 10 10 11 11 11 11
6 6 6 6 6 6 6 6 6 6 7 7 7 7 7 7 7 6 6 6 6 6 6 6 7 7 7 8 8 9 9 9 10 10 10 10 10 11
5 4 5 5 5 5 5 5 6 6 6 6 7 7 7 7 6 6 6 6 6 5 5 6 6 6 7 7 7 8 8 8 9 9 10 10 10 10
3 3 3 3 4 4 4 5 5 5 5 6 6 6 6 6 6 6 5 5 5 5 5 5 5 6 6 6 7 7 7 8 8 8 9 9 9 9
2 2 2 2 3 3 3 4 4 4 4 5 5 5 5 5 5 5 4 4 4 4 4 4 4 5 5 6 6 6 7 7 7 7 8 8 8 9
0 1 1 1 1 1 2 2 3 3 4 4 4 4 4 4 4 4 4 3 3 3 3 4 4 3 4 4 5 5 6 6 6 7 7 7 8 8
-1 -0 -0 -0 -0 -0 0 1 1 2 2 3 3 3 3 3 3 3 3 2 3 3 3 3 3 3 3 4 4 5 5 5 5 6 6 6 7 7
-2 -2 -2 -2 -2 -1 -1 -1 -0 0 1 1 2 2 2 2 2 1 1 1 2 2 1 2 2 2 3 3 3 3 3 4 4 5 5 6 6 6
-4 -4 -4 -4 -4 -3 -2 -2 -2 -1 -1 -0 -0 -0 -0 0 0 0 0 0 1 1 0 1 1 1 1 1 1 1 2 2 2 3 4 4 5 5
-5 -5 -5 -5 -5 -4 -4 -4 -4 -3 -3 -2 -2 -2 -2 -1 -1 -1 -1 -1 -1 -1 -2 -2 -1 -1 -1 0 1 1 0 1 1 2 2 3 4 4
-7 -7 -7 -7 -7 -6 -5 -6 -5 -5 -5 -4 -4 -3 -3 -3 -3 -3 -3 -3 -3 -2 -2 -3 -2 -2 -2 -1 -0 -0 -0 -0 0 1 1 1 2 3
-7 -8 -8 -8 -8 -7 -7 -7 -6 -6 -6 -6 -5 -5 -5 -5 -5 -5 -5 -5 -5 -4 -4 -4 -4 -3 -3 -2 -2 -1 -1 -0 0 0 1 1 1 2
-8 -8 -8 -8 -8 -8 -8 -7 -7 -7 -6 -6 -6 -7 -7 -7 -6 -6 -6 -6 -6 -6 -5 -5 -5 -4 -5 -4 -2 -2 -1 -1 -0 0 1 1 1 1
-9 -9 -9 -9 -9 -8 -8 -8 -8 -7 -7 -7 -7 -8 -8 -7 -7 -7 -7 -6 -6 -6 -6 -6 -6 -5 -6 -6 -6 -3 -2 -2 -1 -0 0 0 1 1
-9 -9 -9 -9 -9 -9 -9 -9 -9 -8 -8 -8 -8 -8 -8 -8 -8 -8 -7 -7 -7 -7 -7 -7 -7 -7 -8 -8 -8 -7 -5 -3 -2 -2 -1 -1 -0 0
-10 -10 -10 -10 -10 -10 -10 -10 -10 -10 -10 -9 -9 -9 -9 -9 -9 -9 -8 -8 -7 -7 -7 -7 -8 -8 -8 -8 -8 -8 -6 -5 -4 -3 -3 -2 -1 -0
-10 -10 -11 -11 -11 -11 -11 -11 -11 -11 -11 -11 -11 -10 -10 -10 -10 -10 -10 -9 -9 -8 -7 -7 -8 -8 -8 -8 -8 -6 -6 -5 -5 -5 -5 -4 -2 -1
-11 -11 -12 -12 -12 -12 -12 -12 -12 -12 -12 -12 -12 -12 -11 -11 -11 -11 -11 -11 -11 -10 -9 -9 -8 -8 -8 -7 -7 -7 -7 -7 -7 -6 -6 -5 -4 -2
-12 -12 -12 -12 -13 -13 -13 -13 -13 -13 -13 -13 -13 -13 -13 -13 -12 -12 -12 -12 -12 -12 -11 -10 -10 -11 -12 -11 -10 -9 -9 -8 -7 -7 -6 -5 -5 -4
-13 -13 -13 -13 -13 -14 -14 -14 -14 -14 -14 -14 -14 -14 -14 -14 -13 -13 -13 -13 -13 -13 -12 -10 -10 -11 -12 -12 -11 -11 -8 -8 -8 -8 -7 -6 -5 -4
-14 -14 -14 -14 -14 -14 -14 -15 -15 -15 -15 -15 -15 -15 -14 -14 -14 -14 -14 -13 -13 -13 -12 -11 -11 -12 -13 -12 -12 -11 -8 -7 -8 -9 -9 -8 -7 -6
-14 -14 -14 -14 -15 -15 -15 -15 -15 -15 -15 -15 -15 -15 -15 -15 -15 -15 -15 -14 -14 -13 -13 -12 -11 -12 -12 -12 -12 -11 -9 -7 -7 -8 -8 -8 -8 -7
-15 -15 -15 -15 -15 -15 -15 -16 -16 -16 -16 -16 -16 -16 -16 -16 -15 -15 -15 -14 -14 -13 -13 -13 -12 -12 -12 -12 -12 -11 -10 -8 -8 -7 -7 -6 -7 -6

GEFSNE_850_meantemp_024.txt.gz
Temperature
6 6 6 7 7 7 7 7 7 7 7 8 8 8 8 8 8 8 7 7 7 7 8 8 8 8 8 8 8 8 9 9 9 9 9 10 10 10
5 6 6 6 6 6 6 7 7 7 7 7 7 7 7 7 7 7 7 7 7 7 7 7 7 7 7 7 8 8 8 8 8 9 9 9 9 9
4 4 5 5 5 5 6 6 6 6 6 6 7 7 7 7 7 7 7 7 6 6 6 6 6 6 6 7 7 7 7 8 8 8 8 8 8 9
2 3 3 3 4 4 4 5 5 5 5 6 6 6 6 6 6 6 6 6 6 6 6 6 6 5 6 6 6 6 7 7 7 7 7 8 8 8
1 2 2 2 2 2 3 4 4 4 5 5 5 5 5 6 6 6 6 6 6 5 5 5 5 5 5 5 5 5 6 6 6 6 7 7 7 7
0 0 0 0 0 1 2 2 3 3 3 4 4 5 5 5 5 5 5 5 5 5 5 5 4 4 4 4 4 5 5 5 5 6 6 6 7 7
-1 -1 -1 -1 -0 -0 0 1 1 2 2 3 3 3 4 4 4 4 4 4 4 4 4 4 4 4 3 4 4 4 4 4 4 5 5 5 6 6
-3 -2 -2 -2 -2 -2 -1 -1 -0 0 1 1 2 2 3 3 3 4 4 3 3 3 3 3 3 3 3 3 3 3 3 3 4 4 4 4 5 5
-5 -4 -4 -4 -4 -3 -3 -3 -2 -2 -1 -0 0 1 1 2 2 2 3 3 2 2 2 2 2 2 2 2 2 2 2 2 3 3 3 3 3 4
-6 -6 -6 -6 -5 -5 -5 -4 -4 -4 -3 -2 -2 -1 -1 -0 0 1 1 1 0 0 0 0 1 1 1 1 1 1 1 1 1 1 1 2 2 2
-7 -7 -7 -7 -7 -6 -6 -6 -6 -5 -5 -5 -4 -4 -3 -3 -2 -1 -1 -1 -1 -1 -1 -1 -0 0 0 -0 -0 -0 -0 -0 -0 -0 0 0 0 1
-8 -8 -8 -8 -8 -8 -7 -7 -7 -6 -6 -6 -6 -6 -5 -5 -4 -4 -3 -3 -3 -3 -3 -3 -2 -2 -1 -1 -1 -1 -1 -1 -1 -1 -0 -0 0 0
-8 -8 -8 -9 -9 -9 -8 -8 -8 -7 -7 -7 -7 -7 -7 -6 -6 -6 -5 -5 -5 -5 -5 -4 -4 -4 -3 -2 -2 -2 -2 -1 -1 -1 -1 -0 -0 0
-9 -9 -9 -9 -9 -9 -9 -9 -9 -8 -8 -8 -8 -8 -8 -7 -7 -7 -7 -6 -6 -6 -6 -6 -5 -5 -5 -4 -3 -2 -2 -2 -2 -1 -1 -0 -0 -0
-10 -10 -10 -10 -10 -9 -10 -10 -9 -9 -9 -9 -9 -9 -9 -8 -8 -8 -7 -7 -7 -7 -7 -7 -7 -7 -6 -6 -5 -4 -3 -3 -3 -2 -2 -1 -1 -1
-10 -10 -10 -10 -10 -10 -10 -10 -10 -10 -10 -10 -10 -10 -10 -9 -9 -9 -8 -8 -8 -8 -9 -9 -8 -8 -8 -7 -6 -6 -6 -5 -4 -4 -3 -2 -2 -2
-11 -11 -11 -11 -11 -11 -11 -11 -11 -11 -11 -11 -11 -11 -11 -11 -10 -10 -10 -9 -9 -9 -9 -10 -10 -9 -8 -8 -7 -6 -6 -6 -6 -6 -5 -3 -2 -2
-11 -12 -12 -12 -12 -12 -12 -12 -12 -12 -13 -13 -13 -12 -12 -12 -12 -11 -11 -11 -10 -10 -10 -10 -10 -9 -9 -8 -8 -7 -7 -7 -6 -6 -6 -5 -3 -2
-13 -13 -13 -13 -13 -13 -13 -13 -14 -14 -14 -14 -14 -14 -13 -13 -13 -13 -12 -12 -12 -11 -11 -12 -12 -12 -11 -10 -9 -8 -8 -7 -7 -6 -6 -6 -5 -4
-14 -14 -14 -14 -14 -14 -14 -14 -14 -14 -14 -14 -14 -14 -14 -14 -14 -14 -14 -13 -13 -12 -12 -12 -13 -13 -13 -13 -12 -8 -8 -9 -9 -8 -7 -6 -6 -5
-15 -15 -15 -15 -15 -15 -15 -15 -15 -15 -15 -15 -15 -15 -15 -15 -15 -15 -14 -14 -14 -14 -13 -12 -13 -13 -14 -13 -12 -10 -8 -9 -9 -10 -9 -8 -8 -6
-15 -15 -15 -15 -15 -15 -15 -15 -15 -15 -15 -15 -15 -15 -15 -15 -15 -15 -15 -15 -15 -14 -14 -13 -13 -13 -13 -13 -13 -12 -9 -8 -8 -9 -9 -9 -10 -10
-15 -16 -16 -16 -16 -16 -16 -16 -16 -16 -16 -16 -16 -16 -16 -16 -16 -15 -15 -15 -15 -15 -14 -14 -13 -13 -13 -13 -13 -12 -11 -9 -9 -8 -7 -7 -8 -8

GEFSNE_850_meantemp_030.txt.gz
Temperature
2 3 4 5 5 6 6 7 8 8 8 8 8 8 9 9 9 9 9 9 8 8 8 8 9 9 9 9 10 10 10 10 10 10 10 10 10 10
1 2 3 3 4 5 5 6 7 7 7 7 8 8 8 8 8 8 8 8 8 8 8 8 8 8 8 8 9 9 9 9 9 9 9 9 9 9
0 1 1 2 3 3 4 5 6 6 7 7 7 7 7 7 7 7 7 7 7 7 7 7 7 7 8 8 8 8 8 8 8 8 8 8 8 8
-1 -0 0 1 1 2 3 4 5 5 6 6 6 6 6 7 7 7 7 7 7 6 6 6 6 7 7 7 7 7 7 7 7 7 7 7 7 8
-2 -1 -0 -0 1 1 2 3 3 4 4 5 5 5 6 6 6 6 6 6 6 6 6 6 6 6 6 6 6 6 6 6 6 6 6 7 7 7
-3 -2 -1 -1 -0 0 1 1 2 3 3 4 4 5 5 5 5 6 6 5 5 5 5 5 5 5 5 5 5 5 5 5 5 5 5 5 6 6
-4 -3 -3 -2 -1 -1 -0 0 1 1 2 2 3 3 4 4 5 5 5 5 5 5 5 5 5 5 5 5 5 5 5 5 5 5 5 5 5 5
-5 -5 -4 -4 -3 -2 -2 -1 -1 -0 1 1 2 2 3 3 4 4 4 4 4 4 4 4 4 4 4 4 4 4 4 4 4 4 4 4 4 4
-6 -6 -6 -5 -5 -4 -3 -2 -2 -2 -1 -0 0 1 1 2 3 3 4 4 4 4 3 3 3 3 3 3 3 3 3 3 3 3 3 3 3 3
-7 -7 -7 -7 -6 -6 -5 -4 -4 -3 -3 -2 -1 -1 -0 0 1 2 2 3 3 3 3 2 2 2 2 2 2 2 2 2 2 2 3 2 2 2
-8 -8 -8 -8 -7 -7 -7 -6 -6 -5 -5 -4 -4 -3 -3 -2 -1 -0 1 1 1 1 1 1 1 1 1 1 1 1 1 1 1 2 2 1 1 1
-9 -8 -8 -8 -8 -8 -8 -7 -7 -7 -6 -6 -5 -5 -4 -4 -3 -2 -1 -1 -0 -0 -0 -0 0 0 -0 -0 -0 -0 -0 0 0 0 0 0 0 1
-9 -9 -9 -9 -9 -9 -9 -8 -8 -8 -8 -7 -7 -7 -6 -6 -5 -5 -4 -3 -2 -2 -2 -2 -1 -2 -2 -2 -2 -2 -2 -2 -2 -2 -1 -1 -1 -0
-10 -9 -9 -9 -9 -9 -9 -9 -9 -9 -9 -8 -8 -8 -8 -8 -7 -7 -6 -6 -5 -5 -4 -4 -4 -4 -4 -3 -3 -3 -3 -3 -3 -3 -2 -2 -1 -1
-10 -10 -10 -10 -10 -10 -10 -10 -10 -10 -10 -9 -9 -9 -9 -9 -8 -8 -8 -8 -7 -7 -6 -6 -5 -5 -5 -5 -4 -4 -4 -4 -4 -3 -3 -3 -2 -2
-11 -11 -10 -11 -11 -11 -11 -11 -11 -11 -10 -10 -10 -10 -10 -10 -9 -9 -9 -8 -8 -7 -7 -7 -6 -6 -6 -6 -5 -5 -5 -5 -5 -5 -4 -3 -3 -3
-11 -11 -11 -11 -12 -12 -12 -12 -12 -12 -11 -11 -11 -11 -11 -10 -10 -10 -10 -9 -9 -9 -8 -8 -8 -7 -7 -7 -6 -6 -6 -6 -6 -6 -5 -4 -3 -3
-12 -12 -12 -13 -13 -13 -13 -13 -13 -13 -13 -13 -12 -12 -12 -12 -11 -11 -11 -11 -10 -10 -10 -9 -9 -9 -8 -8 -8 -7 -7 -7 -7 -7 -7 -5 -3 -3
-13 -13 -14 -14 -14 -14 -14 -14 -14 -14 -14 -14 -14 -13 -13 -13 -13 -12 -12 -12 -12 -11 -11 -11 -10 -10 -9 -9 -9 -9 -9 -9 -8 -8 -7 -6 -5 -4
-14 -14 -14 -14 -14 -14 -14 -14 -15 -15 -15 -15 -15 -14 -14 -14 -14 -13 -13 -13 -13 -13 -12 -12 -12 -12 -11 -11 -10 -9 -10 -10 -9 -8 -7 -7 -6 -5
-15 -15 -15 -15 -15 -15 -15 -15 -15 -15 -15 -15 -15 -15 -15 -15 -15 -14 -14 -14 -14 -14 -13 -13 -13 -13 -12 -12 -11 -10 -10 -10 -11 -10 -9 -8 -7 -5
-15 -15 -15 -15 -15 -15 -15 -15 -16 -16 -16 -16 -16 -16 -16 -15 -15 -15 -15 -15 -15 -14 -14 -14 -14 -13 -13 -13 -12 -12 -11 -10 -10 -10 -10 -10 -10 -9
-15 -15 -15 -15 -15 -16 -16 -16 -16 -16 -16 -16 -16 -16 -16 -16 -16 -15 -15 -15 -15 -15 -15 -14 -14 -14 -13 -13 -13 -12 -12 -11 -10 -9 -8 -9 -9 -9

GEFSNE_850_meantemp_036.txt.gz
Temperature
-2 -1 -1 0 1 1 2 3 4 5 7 7 8 8 8 9 9 10 10 11 12 12 12 12 12 12 12 12 12 12 11 11 11 11 11 11 11 11
-3 -2 -1 -1 -0 1 1 2 3 3 5 6 7 7 8 8 9 9 9 10 11 11 11 11 12 12 12 12 11 11 11 11 10 10 10 10 10 10
-4 -3 -2 -2 -1 -0 1 1 2 2 3 5 5 6 7 8 8 8 8 9 9 9 10 10 10 11 11 11 11 10 10 10 9 9 9 9 9 9
-5 -4 -3 -2 -2 -1 -0 0 1 2 2 4 4 5 6 7 7 7 8 8 8 8 8 8 9 9 9 9 9 9 9 8 8 8 8 8 8 8
-6 -5 -4 -3 -3 -2 -1 -0 0 1 2 2 3 4 5 6 6 6 6 6 6 6 6 6 7 7 7 7 7 7 7 7 7 7 7 7 7 7
-6 -6 -5 -4 -4 -3 -2 -1 -0 0 1 2 3 3 4 5 5 5 5 5 5 5 5 5 5 5 5 6 6 6 5 5 6 6 6 6 6 6
-7 -6 -6 -5 -5 -4 -3 -2 -1 -0 0 1 2 3 3 4 4 5 5 4 4 4 4 4 4 4 4 4 4 4 5 5 5 5 5 5 6 6
-7 -7 -7 -6 -6 -4 -4 -3 -2 -1 -1 0 1 2 2 3 4 4 4 4 3 3 3 3 3 4 4 4 4 4 4 4 4 4 5 5 5 5
-8 -8 -7 -7 -6 -6 -5 -4 -3 -2 -2 -1 -0 0 1 2 3 3 3 3 3 3 3 3 3 3 3 4 4 4 4 4 4 4 4 4 4 4
-8 -8 -8 -7 -7 -7 -6 -5 -5 -4 -4 -3 -2 -1 -0 1 2 2 2 2 2 2 3 3 2 2 2 3 3 3 3 3 3 4 4 4 4 4
-9 -8 -8 -8 -8 -7 -7 -6 -6 -6 -5 -4 -4 -3 -2 -1 0 1 2 2 2 1 2 2 1 1 1 1 1 2 2 3 3 3 3 3 3 3
-9 -9 -8 -8 -8 -8 -8 -8 -7 -7 -7 -6 -5 -4 -3 -2 -1 -0 0 1 1 1 1 1 0 0 -0 -0 0 1 1 2 2 2 2 2 2 3
-9 -9 -9 -8 -8 -8 -9 -9 -9 -8 -8 -7 -7 -6 -5 -4 -3 -2 -1 -1 0 0 -0 0 -0 0 0 -1 -1 -0 0 1 1 1 1 2 2 2
-10 -9 -9 -9 -9 -9 -9 -10 -9 -9 -9 -9 -8 -8 -7 -7 -6 -5 -4 -3 -2 -2 -2 -1 -1 -0 -0 -1 -2 -1 -1 -1 -0 0 0 1 1 1
-11 -10 -10 -10 -10 -10 -10 -10 -10 -10 -10 -10 -10 -10 -9 -9 -8 -8 -7 -6 -5 -4 -3 -3 -2 -2 -1 -1 -2 -2 -2 -2 -2 -1 -1 -0 0 0
-11 -11 -11 -11 -11 -11 -11 -11 -11 -11 -11 -11 -11 -11 -11 -10 -9 -9 -9 -8 -7 -7 -6 -5 -5 -4 -4 -4 -3 -4 -4 -3 -3 -2 -2 -1 -1 -1
-12 -12 -12 -12 -12 -12 -12 -12 -12 -12 -12 -12 -12 -11 -11 -11 -10 -10 -9 -9 -9 -9 -8 -8 -7 -7 -6 -6 -6 -6 -5 -5 -4 -3 -3 -3 -2 -2
-13 -13 -13 -13 -13 -13 -13 -13 -13 -13 -13 -13 -13 -12 -12 -12 -11 -11 -10 -10 -10 -9 -9 -9 -8 -8 -7 -7 -7 -8 -7 -7 -6 -5 -4 -4 -4 -4
-14 -14 -14 -14 -14 -14 -14 -14 -14 -14 -14 -14 -14 -14 -13 -13 -12 -12 -12 -11 -11 -11 -10 -10 -9 -9 -9 -9 -9 -8 -9 -8 -7 -7 -6 -5 -4 -4
-14 -14 -15 -15 -15 -15 -15 -15 -15 -15 -15 -15 -15 -14 -14 -14 -14 -13 -13 -13 -13 -12 -12 -11 -10 -10 -10 -11 -11 -10 -9 -9 -8 -8 -7 -6 -5 -5
-15 -15 -15 -15 -15 -15 -15 -15 -15 -15 -15 -15 -15 -15 -15 -15 -15 -15 -14 -14 -14 -13 -13 -13 -12 -11 -11 -11 -11 -11 -11 -10 -9 -9 -8 -7 -6 -5
-15 -15 -15 -15 -15 -15 -15 -15 -16 -16 -16 -16 -16 -15 -15 -15 -15 -15 -15 -15 -15 -14 -14 -14 -13 -13 -12 -12 -12 -12 -11 -11 -10 -10 -9 -9 -8 -7
-15 -15 -15 -15 -15 -15 -16 -16 -16 -16 -16 -16 -16 -16 -15 -15 -15 -15 -15 -15 -15 -15 -14 -14 -14 -13 -13 -13 -13 -12 -12 -11 -11 -10 -9 -9 -9 -8

GEFSNE_850_meantemp_042.txt.gz
Temperature
-6 -5 -5 -5 -4 -3 -2 -1 -0 1 2 3 5 6 7 7 8 8 9 9 10 10 11 11 12 12 12 13 13 13 13 13 13 13 13 13 13 13
-6 -6 -5 -5 -4 -4 -3 -2 -1 -0 0 2 3 5 5 6 7 8 8 8 9 10 10 11 11 12 12 12 12 13 13 13 13 13 13 13 13 13
-7 -6 -6 -6 -5 -4 -4 -3 -2 -1 -0 1 2 3 4 5 6 7 7 8 8 9 10 10 11 11 12 12 12 12 12 12 12 12 12 12 12 12
-7 -7 -6 -6 -6 -5 -4 -4 -3 -2 -1 -0 1 2 3 4 5 6 6 7 8 8 9 10 10 11 11 12 12 12 12 12 12 12 12 11 11 11
-7 -7 -7 -7 -6 -6 -5 -4 -3 -3 -2 -1 -0 1 2 3 4 5 5 6 7 7 8 9 9 10 11 11 12 12 12 12 12 12 11 11 11 10
-8 -7 -7 -7 -6 -6 -5 -5 -4 -3 -3 -2 -1 -0 1 2 3 4 4 5 6 6 7 8 8 9 10 10 11 11 11 11 11 11 11 10 10 10
-8 -7 -7 -7 -7 -6 -6 -5 -4 -4 -3 -2 -2 -1 -0 1 2 3 4 5 5 6 7 7 7 8 8 9 9 10 10 10 10 10 10 9 9 8
-8 -8 -8 -7 -7 -7 -6 -6 -5 -5 -4 -4 -3 -2 -1 -0 1 2 3 4 4 5 6 6 6 7 7 7 8 8 9 9 9 8 8 7 7 7
-8 -8 -8 -8 -7 -7 -7 -7 -6 -6 -6 -5 -4 -4 -3 -2 -0 1 2 3 4 4 5 5 5 5 5 5 6 7 7 7 7 6 6 6 5 5
-9 -8 -8 -8 -8 -7 -7 -7 -7 -7 -7 -6 -5 -5 -4 -3 -1 0 1 2 3 3 4 4 3 4 3 3 4 4 4 4 4 4 4 4 4 4
-9 -9 -8 -8 -8 -8 -8 -8 -8 -8 -7 -7 -6 -5 -4 -3 -2 -0 1 2 2 2 3 3 3 3 2 2 2 2 3 3 3 3 3 3 3 3
-9 -9 -9 -8 -8 -8 -8 -9 -9 -9 -8 -7 -6 -5 -4 -3 -2 -1 -0 1 1 1 2 2 2 2 1 1 1 1 1 2 2 2 2 2 2 3
-10 -10 -9 -9 -9 -9 -9 -9 -10 -9 -9 -8 -8 -7 -6 -5 -4 -3 -1 -0 0 1 1 1 1 1 1 0 0 1 1 1 1 2 2 2 2 3
-11 -11 -10 -10 -10 -10 -10 -10 -10 -9 -9 -9 -9 -9 -8 -7 -6 -5 -4 -2 -1 -1 -0 1 1 1 1 -0 -1 -0 0 1 1 1 1 2 2 2
-11 -11 -11 -11 -11 -11 -11 -11 -10 -10 -10 -10 -11 -11 -10 -9 -8 -7 -5 -4 -3 -2 -1 -0 0 0 1 1 -0 -1 -0 -0 0 0 1 1 1 2
-12 -12 -12 -12 -12 -12 -12 -11 -11 -12 -11 -11 -11 -11 -10 -10 -9 -8 -7 -6 -4 -4 -3 -2 -1 -1 -0 -0 0 -0 -0 -0 -0 -0 0 1 1 1
-13 -13 -13 -13 -13 -13 -13 -13 -12 -12 -12 -12 -12 -11 -11 -11 -10 -10 -9 -8 -7 -6 -5 -4 -3 -2 -2 -2 -2 -1 -1 -1 -1 -0 -0 -0 0 0
-13 -14 -14 -14 -14 -14 -14 -14 -14 -14 -13 -13 -13 -12 -12 -12 -11 -11 -10 -9 -9 -9 -8 -7 -6 -5 -4 -4 -5 -4 -3 -3 -3 -2 -2 -1 -1 -1
-14 -14 -14 -14 -14 -14 -14 -14 -14 -14 -14 -14 -14 -13 -13 -12 -12 -12 -11 -11 -11 -10 -10 -9 -8 -7 -6 -7 -8 -7 -6 -5 -4 -4 -3 -2 -2 -2
-14 -15 -15 -15 -15 -15 -15 -15 -15 -15 -15 -14 -14 -14 -14 -13 -13 -12 -12 -12 -11 -11 -10 -10 -9 -8 -8 -8 -9 -9 -8 -7 -6 -5 -4 -3 -3 -3
-14 -14 -15 -15 -15 -15 -15 -15 -15 -15 -15 -15 -15 -14 -14 -14 -14 -13 -13 -13 -12 -11 -11 -11 -10 -10 -9 -9 -9 -9 -9 -8 -7 -6 -5 -5 -4 -4
-14 -14 -14 -15 -15 -15 -15 -15 -15 -15 -15 -15 -15 -15 -15 -14 -14 -14 -14 -13 -13 -12 -12 -12 -11 -11 -10 -10 -10 -9 -9 -9 -8 -7 -7 -6 -5 -5
-14 -14 -14 -15 -15 -15 -15 -15 -15 -15 -15 -15 -15 -15 -15 -15 -14 -14 -14 -14 -13 -13 -13 -12 -12 -12 -11 -11 -11 -10 -10 -10 -9 -8 -8 -7 -7 -6

GEFSNE_850_meantemp_048.txt.gz
Temperature
-9 -9 -8 -7 -7 -6 -6 -6 -5 -4 -4 -3 -1 -0 1 3 4 6 7 8 8 9 9 10 10 11 12 12 12 13 13 13 13 14 14 14 14 14
-10 -9 -8 -7 -7 -7 -6 -6 -5 -5 -4 -3 -3 -2 -0 1 2 4 5 7 8 8 9 9 10 11 11 12 12 12 12 13 13 13 13 13 13 14
-10 -9 -8 -8 -7 -7 -6 -6 -5 -5 -4 -4 -3 -2 -1 -0 1 2 4 5 7 7 8 9 10 10 11 11 12 12 12 12 12 13 13 13 13 13
-10 -9 -8 -8 -7 -7 -7 -6 -6 -5 -5 -4 -4 -3 -2 -1 0 1 3 4 6 7 8 8 9 10 10 11 11 12 12 12 12 12 12 13 13 13
-10 -9 -8 -8 -7 -7 -7 -6 -6 -5 -5 -5 -4 -3 -2 -1 -0 1 2 3 4 6 7 8 8 9 10 11 11 11 12 12 12 12 12 12 12 12
-10 -9 -9 -8 -8 -7 -7 -6 -6 -6 -5 -5 -4 -3 -3 -2 -1 0 1 2 3 5 6 7 8 9 10 10 11 11 11 12 12 12 12 12 12 12
-9 -9 -8 -8 -8 -7 -7 -7 -6 -6 -6 -5 -5 -4 -3 -2 -2 -1 0 2 3 4 6 7 8 8 9 10 10 11 11 11 12 12 12 12 12 12
-9 -9 -8 -8 -8 -8 -7 -7 -7 -7 -7 -6 -5 -5 -4 -4 -3 -2 -0 1 2 4 5 6 6 7 8 9 10 10 11 11 11 12 12 12 12 12
-9 -9 -9 -8 -8 -8 -8 -8 -7 -7 -7 -7 -7 -6 -6 -5 -4 -2 -1 -0 2 3 4 5 5 6 7 8 9 9 10 10 11 11 11 11 11 11
-10 -9 -9 -9 -9 -8 -8 -8 -8 -8 -8 -8 -7 -7 -6 -5 -4 -3 -2 -0 1 2 3 4 5 5 6 6 7 8 9 9 10 10 10 10 10 10
-10 -10 -9 -9 -9 -9 -9 -9 -8 -8 -8 -8 -8 -7 -6 -5 -5 -3 -2 -1 0 2 3 4 4 4 5 5 6 7 7 8 8 9 9 9 9 9
-11 -10 -10 -10 -10 -10 -10 -9 -9 -9 -9 -8 -8 -7 -6 -6 -5 -4 -3 -2 -1 1 2 3 3 4 4 4 4 5 6 6 7 7 8 8 8 8
-11 -11 -11 -11 -11 -11 -11 -11 -11 -10 -9 -9 -8 -8 -7 -6 -5 -5 -4 -3 -1 0 1 2 3 4 3 3 3 3 4 4 5 5 5 6 6 6
-12 -12 -12 -12 -11 -11 -11 -11 -11 -10 -10 -9 -9 -8 -8 -7 -6 -6 -5 -3 -2 -1 0 1 2 3 3 3 2 2 2 3 3 3 3 3 3 3
-13 -13 -13 -12 -12 -11 -12 -11 -11 -11 -10 -10 -10 -10 -10 -9 -7 -6 -5 -4 -3 -2 -0 1 2 3 3 3 2 1 1 1 1 2 2 2 2 2
-13 -13 -13 -13 -12 -12 -12 -12 -12 -12 -12 -12 -11 -11 -10 -9 -8 -7 -6 -5 -3 -3 -2 -0 1 1 2 2 2 1 1 1 0 1 1 1 1 1
-13 -13 -13 -13 -13 -13 -13 -13 -13 -13 -12 -12 -12 -11 -11 -10 -9 -8 -7 -6 -5 -4 -3 -2 -1 -0 0 0 0 0 0 0 -0 -0 0 -0 -0 -0
-13 -14 -14 -14 -14 -14 -14 -14 -14 -14 -13 -13 -13 -12 -12 -11 -10 -10 -9 -8 -7 -6 -5 -4 -3 -2 -1 -2 -2 -1 -0 -1 -1 -1 -0 -0 -0 -0
-14 -14 -14 -14 -14 -15 -15 -15 -15 -14 -14 -14 -13 -13 -12 -12 -11 -11 -10 -9 -9 -8 -7 -5 -4 -3 -2 -4 -5 -3 -2 -1 -1 -1 -1 -1 -1 -1
-14 -14 -14 -14 -14 -15 -15 -15 -15 -15 -14 -14 -14 -14 -13 -13 -12 -12 -11 -11 -10 -9 -8 -7 -6 -5 -4 -5 -6 -6 -4 -3 -2 -2 -2 -2 -2 -2
-14 -14 -14 -14 -14 -15 -15 -15 -15 -15 -15 -14 -14 -14 -14 -14 -13 -13 -12 -12 -11 -10 -10 -9 -8 -7 -6 -5 -6 -7 -7 -5 -4 -4 -3 -3 -3 -3
-13 -13 -14 -14 -14 -14 -15 -15 -15 -15 -15 -15 -14 -14 -14 -14 -14 -13 -13 -13 -12 -12 -11 -11 -10 -9 -8 -7 -8 -8 -8 -7 -6 -6 -5 -4 -4 -3
-13 -13 -13 -14 -14 -14 -14 -14 -15 -15 -15 -15 -14 -14 -14 -14 -14 -14 -14 -13 -13 -13 -12 -12 -11 -10 -10 -9 -9 -9 -9 -8 -8 -7 -6 -5 -4 -4

GEFSNE_850_meantemp_054.txt.gz
Temperature
-12 -12 -11 -10 -10 -9 -9 -8 -8 -8 -7 -6 -5 -3 -3 -1 0 1 3 5 6 7 8 9 9 10 11 11 12 12 13 13 13 13 13 14 14 14
-12 -11 -11 -10 -10 -9 -9 -8 -8 -8 -7 -6 -5 -4 -3 -2 -1 1 2 3 5 6 7 8 9 9 10 10 11 12 12 12 12 13 13 13 13 14
-11 -11 -10 -10 -9 -9 -8 -8 -8 -7 -7 -7 -5 -4 -4 -3 -1 -0 1 3 4 6 7 7 8 9 9 10 11 11 12 12 12 12 13 13 13 13
-11 -11 -10 -10 -9 -9 -8 -8 -8 -7 -7 -7 -6 -5 -4 -3 -2 -1 1 2 3 5 6 7 8 8 9 9 10 11 11 12 12 12 12 13 13 13
-11 -10 -10 -9 -9 -8 -8 -8 -8 -7 -7 -7 -6 -5 -4 -3 -2 -1 -0 1 3 4 5 6 7 8 8 9 10 10 11 11 12 12 12 12 12 12
-10 -10 -10 -9 -9 -8 -8 -8 -8 -7 -7 -7 -6 -6 -5 -4 -3 -2 -0 1 2 3 4 5 6 7 8 8 9 10 10 11 11 12 12 12 12 12
-10 -10 -10 -9 -9 -9 -9 -8 -8 -8 -7 -7 -7 -6 -6 -5 -4 -3 -2 0 1 2 4 5 6 7 7 8 8 9 10 11 11 12 12 12 12 12
-10 -10 -10 -10 -9 -9 -9 -9 -9 -9 -8 -8 -8 -8 -7 -6 -5 -4 -3 -1 0 1 3 4 5 6 6 7 8 9 10 10 11 11 12 12 12 12
-10 -10 -10 -10 -10 -9 -9 -9 -9 -9 -9 -9 -9 -8 -8 -7 -6 -5 -4 -3 -1 0 2 3 4 5 6 7 8 8 9 10 10 11 11 12 12 12
-11 -11 -11 -10 -10 -10 -10 -9 -9 -9 -9 -9 -9 -9 -8 -8 -7 -6 -5 -3 -1 -0 0 2 3 4 5 6 7 8 9 9 10 10 11 11 12 12
-11 -11 -11 -11 -11 -11 -10 -10 -10 -10 -9 -9 -9 -9 -8 -8 -7 -6 -5 -4 -2 -1 -0 1 2 3 4 5 6 7 8 9 10 10 10 11 11 11
-12 -12 -12 -12 -12 -12 -11 -11 -11 -10 -10 -9 -9 -9 -8 -8 -7 -6 -5 -4 -3 -2 -1 0 2 3 3 4 5 6 7 8 9 9 9 10 10 10
-12 -13 -13 -13 -13 -12 -12 -12 -12 -11 -11 -10 -9 -9 -8 -8 -7 -6 -6 -5 -4 -2 -1 -0 1 2 3 3 4 5 6 7 7 8 8 9 9 10
-13 -13 -13 -13 -13 -13 -13 -13 -12 -11 -11 -10 -10 -9 -9 -8 -7 -7 -6 -5 -4 -3 -2 -1 0 1 2 3 3 4 5 6 6 7 7 7 8 8
-13 -13 -13 -13 -13 -13 -13 -13 -12 -12 -12 -11 -11 -11 -10 -9 -8 -7 -6 -5 -4 -3 -2 -1 -0 1 2 3 3 3 4 4 5 6 6 6 7 7
-13 -13 -13 -13 -13 -13 -13 -13 -13 -13 -13 -12 -12 -11 -10 -9 -8 -7 -6 -5 -4 -4 -2 -2 -1 0 1 2 3 3 3 3 3 4 5 5 5 6
-13 -13 -13 -13 -13 -13 -13 -14 -13 -13 -13 -13 -12 -11 -11 -10 -9 -8 -7 -6 -5 -4 -3 -2 -1 -1 0 1 2 2 3 3 3 3 4 4 4 4
-13 -13 -13 -14 -14 -14 -14 -14 -14 -14 -14 -13 -13 -12 -12 -11 -10 -9 -8 -7 -6 -5 -4 -3 -2 -1 -1 -1 -0 1 2 2 2 2 3 3 2 2
-12 -13 -13 -13 -14 -14 -14 -14 -14 -14 -14 -14 -13 -13 -12 -12 -11 -10 -9 -8 -7 -6 -5 -4 -3 -2 -1 -2 -3 -1 -0 1 1 1 2 2 1 0
-12 -13 -13 -13 -14 -14 -14 -14 -14 -14 -14 -14 -14 -13 -13 -12 -12 -11 -11 -10 -9 -8 -6 -5 -4 -3 -3 -3 -4 -4 -2 -1 0 0 0 0 0 -1
-12 -12 -12 -13 -13 -14 -14 -14 -14 -14 -14 -14 -14 -14 -13 -13 -13 -12 -12 -11 -10 -9 -8 -7 -6 -5 -4 -3 -4 -5 -4 -3 -1 -0 -0 -0 -1 -2
-11 -12 -12 -12 -13 -13 -14 -14 -14 -14 -14 -14 -14 -14 -14 -13 -13 -13 -12 -12 -11 -10 -10 -9 -8 -7 -5 -5 -6 -6 -5 -5 -4 -3 -2 -1 -1 -1
-11 -11 -11 -12 -12 -13 -13 -13 -14 -14 -14 -14 -14 -14 -14 -14 -13 -13 -13 -12 -12 -11 -11 -10 -9 -8 -8 -7 -7 -7 -7 -6 -5 -5 -4 -3 -2 -2

GEFSNE_850_meantemp_060.txt.gz
Temperature
-12 -12 -11 -11 -11 -11 -10 -10 -10 -9 -7 -6 -5 -5 -5 -4 -3 -2 -1 1 2 3 5 6 7 8 10 11 12 12 13 13 13 13 14 14 14 14
-11 -11 -11 -11 -11 -11 -10 -10 -9 -9 -8 -7 -6 -6 -5 -5 -4 -3 -2 -0 2 3 4 5 7 8 9 10 11 12 12 12 13 13 13 13 13 14
-11 -11 -11 -11 -10 -10 -10 -9 -9 -9 -8 -7 -6 -6 -6 -5 -4 -3 -2 -1 1 2 3 4 6 7 8 9 10 11 12 12 12 13 13 13 13 13
-11 -11 -10 -10 -10 -10 -9 -9 -9 -8 -8 -8 -7 -6 -6 -5 -5 -3 -2 -1 0 2 2 4 5 6 7 9 10 10 11 12 12 12 12 12 13 13
-11 -10 -10 -10 -10 -9 -9 -9 -9 -8 -8 -8 -7 -7 -6 -6 -5 -4 -3 -2 -0 1 2 3 4 6 7 8 9 10 11 11 12 12 12 12 12 12
-10 -10 -10 -10 -10 -9 -9 -9 -9 -8 -8 -8 -8 -7 -7 -6 -6 -4 -3 -2 -1 0 2 3 4 5 6 7 8 9 10 11 11 12 12 12 12 12
-11 -11 -10 -10 -10 -10 -9 -9 -9 -9 -9 -8 -8 -8 -8 -7 -7 -6 -4 -2 -1 -0 1 2 4 5 6 7 8 9 9 10 11 11 12 12 12 12
-11 -11 -11 -10 -10 -10 -10 -10 -10 -10 -10 -9 -9 -9 -9 -8 -8 -7 -6 -4 -2 -1 0 2 3 4 5 6 7 8 9 10 10 11 12 12 12 12
-11 -11 -11 -11 -11 -11 -10 -10 -10 -10 -10 -10 -10 -9 -9 -9 -8 -7 -6 -5 -4 -2 -1 1 2 4 5 6 6 7 8 9 10 11 11 11 12 12
-11 -12 -12 -11 -11 -11 -11 -11 -11 -10 -10 -10 -10 -10 -9 -9 -8 -8 -7 -5 -4 -2 -2 -0 2 3 4 5 6 7 8 9 9 10 11 11 11 11
-11 -12 -12 -12 -12 -11 -11 -11 -11 -11 -10 -10 -10 -10 -9 -9 -8 -7 -7 -6 -5 -3 -2 -1 1 2 4 5 6 6 7 8 9 10 10 10 11 11
-11 -12 -12 -12 -12 -12 -12 -12 -12 -11 -11 -10 -10 -9 -9 -9 -8 -8 -7 -6 -6 -4 -3 -1 0 1 3 4 5 6 7 8 8 9 10 10 10 10
-11 -12 -12 -12 -13 -13 -13 -12 -12 -12 -11 -11 -11 -10 -9 -9 -8 -8 -7 -7 -6 -5 -3 -2 -0 1 2 3 4 5 6 7 8 8 9 10 10 10
-11 -12 -12 -13 -13 -13 -13 -13 -13 -12 -12 -12 -11 -11 -10 -9 -9 -8 -7 -6 -5 -4 -3 -3 -1 0 1 2 4 5 6 6 7 8 8 9 9 9
-11 -12 -12 -12 -13 -13 -13 -13 -13 -13 -12 -12 -12 -12 -11 -10 -9 -8 -7 -6 -5 -4 -3 -3 -2 -0 0 2 3 4 5 5 6 7 7 8 9 9
-11 -11 -12 -12 -13 -13 -13 -13 -13 -13 -13 -13 -13 -12 -11 -10 -9 -9 -8 -7 -6 -5 -4 -3 -2 -1 0 1 2 3 4 5 5 6 7 7 8 8
-11 -11 -12 -12 -13 -13 -13 -13 -13 -13 -13 -13 -13 -12 -12 -11 -10 -9 -8 -7 -6 -5 -4 -3 -2 -1 -0 1 2 3 4 4 5 5 6 6 6 7
-11 -12 -12 -12 -13 -13 -13 -13 -14 -14 -13 -13 -13 -13 -12 -11 -11 -10 -9 -8 -7 -6 -5 -4 -3 -2 -1 -0 1 2 3 4 4 5 5 5 5 6
-11 -12 -12 -12 -13 -13 -13 -13 -14 -14 -13 -13 -13 -13 -12 -12 -11 -10 -10 -9 -8 -7 -5 -4 -3 -2 -1 -1 -1 0 2 3 3 4 4 5 4 4
-11 -11 -12 -12 -13 -13 -13 -13 -13 -14 -13 -13 -13 -13 -13 -12 -12 -11 -10 -9 -8 -7 -6 -5 -4 -3 -2 -2 -1 -1 0 1 2 3 3 3 3 3
-11 -11 -12 -12 -12 -13 -13 -13 -13 -13 -13 -13 -13 -13 -13 -13 -12 -12 -11 -10 -9 -8 -7 -6 -5 -4 -3 -2 -2 -2 -1 -0 1 2 2 2 2 1
-11 -11 -11 -12 -12 -12 -12 -13 -13 -13 -13 -13 -13 -13 -13 -13 -13 -12 -11 -11 -10 -9 -8 -7 -6 -5 -4 -3 -3 -3 -3 -2 -1 -0 1 1 1 0
-11 -11 -11 -11 -12 -12 -12 -12 -13 -13 -13 -13 -13 -13 -13 -13 -13 -12 -12 -11 -10 -10 -9 -8 -7 -6 -5 -5 -4 -4 -4 -3 -2 -2 -1 -1 0 1